Location: Cz?stochówka
(50.8142°N, 19.0915°E)
Time: 15:24:03
(UTC+00:00)

USA 234 - Visible Passes

Search period start: 11 April 2026 00:00
Search period end: 21 April 2026 00:00
Orbit: 1102 x 1106 km, 123.0° (Epoch: 4 January)

Date Brightness Start Highest point End Pass type
(mag) Time Alt. Az. Time Alt. Az. Time Alt. Az.
11 Apr 3.6 01:17:53 10° SSE 01:24:14 38° SW 01:29:56 10° WNW visible
11 Apr 3.5 19:25:58 10° ENE 19:32:30 71° NNW 19:39:00 10° WSW visible
11 Apr 3.9 21:08:49 10° ENE 21:15:08 52° N 21:21:26 10° WNW visible
11 Apr 3.5 22:51:15 10° E 22:57:43 65° NNE 23:04:11 10° WNW visible
12 Apr 3.1 00:34:18 10° SE 00:40:47 64° SW 00:47:18 10° WNW visible
12 Apr 4.3 02:19:58 10° S 02:24:42 21° SW 02:29:27 10° WNW visible
12 Apr 3.2 18:43:08 10° ENE 18:49:44 84° SSE 18:56:18 10° WSW visible
12 Apr 3.8 20:26:12 10° ENE 20:32:35 57° NNW 20:38:58 10° W visible
12 Apr 3.8 22:08:47 10° E 22:15:08 55° N 22:21:29 10° WNW visible
12 Apr 3.2 23:51:21 10° ESE 23:57:54 87° NNE 00:04:30 10° WNW visible
13 Apr 3.6 01:35:23 10° SSE 01:41:22 38° SW 01:47:24 10° WNW visible
13 Apr 3.4 18:00:21 10° ENE 18:06:47 54° SE 18:13:10 10° SW visible
13 Apr 3.5 19:43:27 10° ENE 19:49:58 71° NNW 19:56:29 10° WSW visible
13 Apr 3.9 21:26:18 10° ENE 21:32:36 52° N 21:38:55 10° WNW visible
13 Apr 3.5 23:08:43 10° E 23:15:11 66° NNE 23:21:41 10° WNW visible
14 Apr 3.1 00:51:48 10° SE 00:58:16 63° SW 01:04:47 10° WNW visible
14 Apr 4.3 02:37:29 10° S 02:42:11 21° SW 02:46:54 10° WNW visible
14 Apr 3.2 19:00:37 10° ENE 19:07:12 84° SSE 19:13:47 10° WSW visible
14 Apr 3.8 20:43:41 10° ENE 20:50:04 57° NNW 20:56:27 10° W visible
14 Apr 3.9 22:26:16 10° E 22:32:36 55° N 22:38:57 10° WNW visible
15 Apr 3.2 00:08:49 10° ESE 00:15:23 87° NNE 00:21:58 10° WNW visible
15 Apr 3.6 01:52:52 10° SSE 01:58:51 38° SW 02:04:53 10° WNW visible
15 Apr 3.4 18:17:50 10° ENE 18:24:15 55° SE 18:30:39 10° SW visible
15 Apr 3.5 20:00:55 10° ENE 20:07:26 71° NNW 20:13:58 10° WSW visible
15 Apr 4.0 21:43:46 10° ENE 21:50:05 52° N 21:56:23 10° WNW visible
15 Apr 3.5 23:26:12 10° E 23:32:40 66° NNE 23:39:09 10° WNW visible
16 Apr 3.2 01:09:16 10° SE 01:15:45 63° SW 01:22:16 10° WNW visible
16 Apr 4.3 02:54:59 10° S 02:59:40 21° SW 03:04:23 10° WNW visible
16 Apr 3.2 19:18:06 10° ENE 19:24:41 84° SSE 19:31:16 10° WSW visible
16 Apr 3.8 21:01:10 10° ENE 21:07:32 57° NNW 21:13:55 10° W visible
16 Apr 3.9 22:43:44 10° E 22:50:05 55° N 22:56:26 10° WNW visible
17 Apr 3.2 00:26:18 10° ESE 00:32:51 87° NNE 00:39:27 10° WNW visible
17 Apr 3.7 02:10:21 10° SSE 02:16:20 38° SW 02:22:21 10° WNW visible
17 Apr 3.4 18:35:18 10° ENE 18:41:44 55° SE 18:48:08 10° SW visible
17 Apr 3.5 20:18:24 10° ENE 20:24:55 71° NNW 20:31:26 10° WSW visible
17 Apr 4.0 22:01:15 10° ENE 22:07:33 52° N 22:13:51 10° WNW visible
17 Apr 3.6 23:43:40 10° E 23:50:08 66° NNE 23:56:38 10° WNW visible
18 Apr 3.2 01:26:45 10° SE 01:33:13 63° SW 01:39:44 10° WNW visible
18 Apr 3.2 19:35:34 10° ENE 19:42:10 84° SSE 19:48:44 10° WSW visible
18 Apr 3.8 21:18:38 10° ENE 21:25:01 57° NNW 21:31:24 10° W visible
18 Apr 3.9 23:01:13 10° E 23:07:33 55° N 23:13:54 10° WNW visible
19 Apr 3.2 00:43:46 10° ESE 00:50:20 88° NNE 00:56:56 10° WNW visible
19 Apr 3.7 02:27:50 10° SSE 02:33:49 37° SW 02:39:50 10° WNW visible
19 Apr 3.3 18:52:47 10° ENE 18:59:12 55° SE 19:05:37 10° SW visible
19 Apr 3.5 20:35:53 10° ENE 20:42:24 71° NNW 20:48:54 10° WSW visible
19 Apr 4.0 22:18:43 10° ENE 22:25:01 52° N 22:31:20 10° WNW visible
20 Apr 3.6 00:01:09 10° E 00:07:37 66° NNE 00:14:06 10° WNW visible
20 Apr 3.2 01:44:14 10° SE 01:50:42 63° SW 01:57:13 10° WNW visible
20 Apr 3.2 19:53:03 10° ENE 19:59:38 85° SSE 20:06:13 10° WSW visible
20 Apr 3.8 21:36:07 10° ENE 21:42:29 57° NNW 21:48:52 10° W visible
20 Apr 3.9 23:18:41 10° E 23:25:01 55° N 23:31:23 10° WNW visible
